Weather History for Cando, ND

Change the Weather History Date:

Monday, March 17, 2014

  Actual Average (KDVL) Record (KDVL)
Temperature  
Mean Temperature 28 °F -  
Max Temperature 33 °F 36 °F 68 °F (2012)
Min Temperature 24 °F 17 °F -11 °F (1993)
Degree Days  
Heating Degree Days 36    
Moisture  
Dew Point 28 °F    
Average Humidity 93    
Maximum Humidity 100    
Minimum Humidity 86    
Precipitation  
Precipitation 0.00 in - - ()
Sea Level Pressure  
Sea Level Pressure 29.53 in    
Wind  
Wind Speed 7 mph (NE)    
Max Wind Speed 13 mph    
Max Gust Speed 16 mph    
Visibility 9 miles    
Events Fog    
Averages and records for this station are not official NWS values.
T = Trace of Precipitation, MM = Missing Value Source: NWS Daily Summary

Daily Weather History Graph

Daily Weather History Graph

Search for Another Location

Airport:

Trip Planner

Search our weather history database for the weather conditions in past years. The results will help you decide how hot, cold, wet, or windy it might be!

Date:

Astronomy

Mar. 17, 2014 Rise Set
Actual Time 7:45 AM CDT 7:45 PM CDT
Civil Twilight 7:14 AM CDT 8:16 PM CDT
Nautical Twilight 6:38 AM CDT 8:53 PM CDT
Astronomical Twilight 6:00 AM CDT 9:31 PM CDT
Moon 9:12 PM CDT (3/17) 7:56 AM CDT (3/17)
Length of Visible Light 13h 01m
Length of Day
11h 59m
Full, 99% of the Moon is Illuminated
Mar 17
Full
Mar 23
Last Quarter
Mar 30
New
Apr 7
First Quarter
Apr 15
Full

Hourly Weather History & Observations

Time (CDT) Temp. Windchill Dew Point Humidity Pressure Visibility Wind Dir Wind Speed Gust Speed Precip Events Conditions
12:15 AM 32.0 °F 24.2 °F 28.4 °F 87% 29.56 in 10.0 mi West 9.2 mph - N/A   Mostly Cloudy
12:35 AM 32.0 °F 24.8 °F 28.4 °F 87% 29.55 in 10.0 mi West 8.1 mph - N/A   Mostly Cloudy
12:55 AM 32.0 °F 25.6 °F 28.4 °F 87% 29.55 in 10.0 mi WSW 6.9 mph - N/A   Overcast
1:15 AM 32.0 °F 25.6 °F 28.4 °F 87% 29.56 in 10.0 mi West 6.9 mph - N/A   Mostly Cloudy
1:35 AM 32.0 °F 25.6 °F 28.4 °F 87% 29.55 in 10.0 mi West 6.9 mph - N/A   Mostly Cloudy
1:55 AM 30.2 °F 24.3 °F 28.4 °F 93% 29.55 in 10.0 mi West 5.8 mph - N/A   Overcast
2:15 AM 30.2 °F 25.4 °F 28.4 °F 93% 29.55 in 10.0 mi WNW 4.6 mph - N/A   Mostly Cloudy
2:35 AM 28.4 °F 20.4 °F 26.6 °F 93% 29.55 in 10.0 mi West 8.1 mph - N/A   Partly Cloudy
2:55 AM 28.4 °F 23.3 °F 26.6 °F 93% 29.54 in 10.0 mi WSW 4.6 mph - N/A   Clear
3:15 AM 26.6 °F 18.2 °F 26.6 °F 100% 29.54 in 10.0 mi West 8.1 mph - N/A   Scattered Clouds
3:35 AM 26.6 °F 20.0 °F 26.6 °F 100% 29.54 in 10.0 mi West 5.8 mph - N/A   Scattered Clouds
3:55 AM 26.6 °F 20.0 °F 26.6 °F 100% 29.53 in 10.0 mi West 5.8 mph - N/A   Mostly Cloudy
4:15 AM 26.6 °F 21.2 °F 26.6 °F 100% 29.53 in 10.0 mi NW 4.6 mph - N/A   Mostly Cloudy
4:35 AM 26.6 °F 22.6 °F 26.6 °F 100% 29.52 in 10.0 mi NW 3.5 mph - N/A   Scattered Clouds
4:55 AM 26.6 °F 20.0 °F 26.6 °F 100% 29.51 in 10.0 mi North 5.8 mph - N/A   Scattered Clouds
5:15 AM 26.6 °F 21.2 °F 24.8 °F 93% 29.50 in 10.0 mi North 4.6 mph - N/A   Mostly Cloudy
5:35 AM 26.6 °F 20.0 °F 24.8 °F 93% 29.51 in 10.0 mi North 5.8 mph - N/A   Mostly Cloudy
5:55 AM 26.6 °F 20.0 °F 24.8 °F 93% 29.50 in 10.0 mi North 5.8 mph - N/A   Overcast
6:15 AM 26.6 °F - 26.6 °F 100% 29.49 in 10.0 mi North - - N/A   Mostly Cloudy
6:35 AM 26.6 °F 20.0 °F 26.6 °F 100% 29.48 in 10.0 mi NNE 5.8 mph - N/A   Mostly Cloudy
6:55 AM 26.6 °F 20.0 °F 26.6 °F 100% 29.47 in 10.0 mi NE 5.8 mph - N/A   Overcast
7:15 AM 26.6 °F 20.0 °F 26.6 °F 100% 29.47 in 10.0 mi NE 5.8 mph - N/A   Overcast
7:35 AM 24.8 °F 19.1 °F 24.8 °F 100% 29.47 in 10.0 mi NNE 4.6 mph - N/A   Overcast
7:55 AM 26.6 °F 22.6 °F 24.8 °F 93% 29.47 in 10.0 mi NE 3.5 mph - N/A   Overcast
8:15 AM 26.6 °F 19.1 °F 24.8 °F 93% 29.47 in 10.0 mi NE 6.9 mph - N/A   Scattered Clouds
8:35 AM 26.6 °F 21.2 °F 24.8 °F 93% 29.47 in 10.0 mi NE 4.6 mph - N/A   Clear
8:55 AM 28.4 °F 23.3 °F 26.6 °F 93% 29.46 in 10.0 mi NE 4.6 mph - N/A   Scattered Clouds
9:15 AM 28.4 °F 23.3 °F 26.6 °F 93% 29.46 in 9.0 mi NE 4.6 mph - N/A   Overcast
9:35 AM 28.4 °F 20.4 °F 26.6 °F 93% 29.47 in 9.0 mi NE 8.1 mph - N/A   Mostly Cloudy
9:55 AM 26.6 °F 20.0 °F 26.6 °F 100% 29.47 in 0.2 mi ENE 5.8 mph - N/A Fog Light Freezing Fog
10:15 AM 26.6 °F 22.6 °F 26.6 °F 100% 29.47 in 0.2 mi East 3.5 mph - N/A Fog Light Freezing Fog
10:35 AM 28.4 °F 23.3 °F 28.4 °F 100% 29.48 in 0.2 mi East 4.6 mph - N/A Fog Light Freezing Fog
10:55 AM 28.4 °F 21.2 °F 28.4 °F 100% 29.48 in 0.2 mi ENE 6.9 mph - N/A Fog Light Freezing Fog
11:15 AM 28.4 °F 20.4 °F 28.4 °F 100% 29.48 in 0.5 mi NE 8.1 mph - N/A Fog Light Freezing Fog
11:35 AM 30.2 °F 22.6 °F 28.4 °F 93% 29.49 in 1.0 mi ENE 8.1 mph - N/A   Overcast
11:55 AM 30.2 °F 22.6 °F 28.4 °F 93% 29.49 in 1.2 mi East 8.1 mph - N/A   Overcast
12:15 PM 30.2 °F 24.3 °F 28.4 °F 93% 29.49 in 2.5 mi ENE 5.8 mph - N/A   Overcast
12:35 PM 32.0 °F 24.2 °F 28.4 °F 87% 29.49 in 5.0 mi East 9.2 mph - N/A   Overcast
12:55 PM 32.0 °F 25.6 °F 28.4 °F 87% 29.49 in 7.0 mi ENE 6.9 mph - N/A   Overcast
1:15 PM 32.0 °F 26.4 °F 30.2 °F 93% 29.49 in 10.0 mi East 5.8 mph - N/A   Overcast
1:35 PM 32.0 °F 24.8 °F 30.2 °F 93% 29.49 in 8.0 mi East 8.1 mph - N/A   Overcast
1:55 PM 32.0 °F 26.4 °F 30.2 °F 93% 29.50 in 9.0 mi East 5.8 mph - N/A   Overcast
2:15 PM 32.0 °F 27.5 °F 30.2 °F 93% 29.50 in 10.0 mi ENE 4.6 mph - N/A   Overcast
2:35 PM 32.0 °F 25.6 °F 30.2 °F 93% 29.50 in 10.0 mi East 6.9 mph - N/A   Overcast
2:55 PM 32.0 °F 24.8 °F 30.2 °F 93% 29.49 in 10.0 mi East 8.1 mph - N/A   Overcast
3:15 PM 32.0 °F 24.8 °F 30.2 °F 93% 29.49 in 10.0 mi East 8.1 mph - N/A   Overcast
3:35 PM 32.0 °F 23.6 °F 30.2 °F 93% 29.49 in 10.0 mi East 10.4 mph - N/A   Overcast
3:55 PM 32.0 °F 26.4 °F 30.2 °F 93% 29.50 in 10.0 mi ENE 5.8 mph - N/A   Overcast
4:15 PM 33.8 °F 28.6 °F 30.2 °F 87% 29.51 in 10.0 mi ENE 5.8 mph - N/A   Overcast
4:35 PM 32.0 °F 26.4 °F 28.4 °F 87% 29.52 in 10.0 mi ENE 5.8 mph - N/A   Overcast
4:55 PM 32.0 °F 26.4 °F 30.2 °F 93% 29.52 in 10.0 mi ENE 5.8 mph - N/A   Overcast
5:15 PM 32.0 °F 26.4 °F 30.2 °F 93% 29.53 in 10.0 mi ENE 5.8 mph - N/A   Overcast
5:35 PM 33.8 °F 28.6 °F 30.2 °F 87% 29.53 in 10.0 mi ENE 5.8 mph - N/A   Overcast
5:55 PM 32.0 °F 25.6 °F 28.4 °F 87% 29.54 in 10.0 mi ENE 6.9 mph - N/A   Overcast
6:15 PM 32.0 °F 24.8 °F 28.4 °F 87% 29.55 in 10.0 mi ENE 8.1 mph - N/A   Overcast
6:35 PM 32.0 °F 25.6 °F 28.4 °F 87% 29.56 in 10.0 mi NE 6.9 mph - N/A   Overcast
6:55 PM 32.0 °F 24.8 °F 28.4 °F 87% 29.57 in 10.0 mi NE 8.1 mph - N/A   Overcast
7:15 PM 32.0 °F 26.4 °F 28.4 °F 87% 29.58 in 10.0 mi NE 5.8 mph - N/A   Overcast
7:35 PM 32.0 °F 25.6 °F 28.4 °F 87% 29.59 in 10.0 mi NE 6.9 mph - N/A   Overcast
7:55 PM 32.0 °F 24.8 °F 28.4 °F 87% 29.61 in 10.0 mi NE 8.1 mph - N/A   Overcast
8:15 PM 32.0 °F 24.8 °F 30.2 °F 93% 29.62 in 10.0 mi ENE 8.1 mph - N/A   Overcast
8:35 PM 32.0 °F 24.2 °F 30.2 °F 93% 29.62 in 10.0 mi ENE 9.2 mph - N/A   Overcast
8:55 PM 32.0 °F 25.6 °F 30.2 °F 93% 29.62 in 8.0 mi ENE 6.9 mph - N/A   Overcast
9:15 PM 32.0 °F 25.6 °F 28.4 °F 87% 29.64 in 10.0 mi NE 6.9 mph - N/A   Overcast
9:35 PM 32.0 °F 23.6 °F 28.4 °F 87% 29.64 in 10.0 mi NE 10.4 mph - N/A   Overcast
9:55 PM 32.0 °F 25.6 °F 28.4 °F 87% 29.64 in 10.0 mi NE 6.9 mph - N/A   Overcast
10:15 PM 32.0 °F 22.5 °F 28.4 °F 87% 29.65 in 10.0 mi NE 12.7 mph 16.1 mph N/A   Overcast
10:35 PM 30.2 °F 21.9 °F 28.4 °F 93% 29.66 in 10.0 mi NE 9.2 mph - N/A   Overcast
10:55 PM 28.4 °F 20.4 °F 26.6 °F 93% 29.67 in 10.0 mi NE 8.1 mph - N/A   Overcast
11:15 PM 28.4 °F 20.4 °F 26.6 °F 93% 29.67 in 10.0 mi NE 8.1 mph - N/A   Overcast
11:35 PM 28.4 °F 19.7 °F 26.6 °F 93% 29.68 in 10.0 mi NE 9.2 mph - N/A   Overcast
11:55 PM 28.4 °F 19.1 °F 24.8 °F 86% 29.69 in 10.0 mi NE 10.4 mph 16.1 mph N/A   Overcast